When you browse on this site, cookies collect data to enhance your experience and personalize the content and advertising you see.
Visit our Privacy Policy to learn more. By continuing to use the site, you agree to this use of cookies and data.
  • In Austria
  • List of Countries
  • For 7 days
  • Water Temperature
  • Satellite Maps
  • Weather Map
  • News
  • Weather Widgets
  • user-avatar
    Login

    Hourly Weather Mazari Sharif

    Today, 22 April, Monday

    Time Temperature Precipitation Wind Pressure Humidity
    00:00 +10°C° 0 mm 2 mps 655 mmHg 76%
    01:00 +11°C° 0 mm 1 mps 655 mmHg 77%
    02:00 +11°C° 0 mm 1 mps 655 mmHg 78%
    03:00 +11°C° 0 mm 1 mps 654 mmHg 78%
    04:00 +10°C° 0 mm 1 mps 654 mmHg 77%
    05:00 +10°C° 0 mm 2 mps 654 mmHg 74%
    06:00 +12°C° 0 mm 2 mps 655 mmHg 70%
    07:00 +13°C° 0 mm 2 mps 655 mmHg 67%
    08:00 +15°C° 0 mm 2 mps 655 mmHg 62%
    09:00 +16°C° 0 mm 3 mps 655 mmHg 57%
    10:00 +18°C° 0 mm 3 mps 655 mmHg 52%
    11:00 +19°C° 0 mm 3 mps 654 mmHg 49%
    12:00 +20°C° 0 mm 3 mps 654 mmHg 47%
    13:00 +21°C° 0 mm 3 mps 654 mmHg 44%
    14:00 +21°C° 0.1 mm 3 mps 654 mmHg 42%
    15:00 +21°C° 0.1 mm 2 mps 653 mmHg 41%
    16:00 +21°C° 0.1 mm 2 mps 653 mmHg 40%
    17:00 +20°C° 0.4 mm 2 mps 653 mmHg 44%
    18:00 +20°C° 0.4 mm 1 mps 653 mmHg 48%
    19:00 +19°C° 0.4 mm 1 mps 653 mmHg 52%
    20:00 +19°C° 0.6 mm 1 mps 653 mmHg 55%
    21:00 +18°C° 0.6 mm 1 mps 653 mmHg 58%
    22:00 +18°C° 0.6 mm 1 mps 653 mmHg 61%
    23:00 +18°C° 0.2 mm 1 mps 653 mmHg 61%

    Tomorrow, 23 April, Tuesday

    Time Temperature Precipitation Wind Pressure Humidity
    00:00 +17°C° 0.2 mm 2 mps 652 mmHg 61%
    01:00 +17°C° 0.2 mm 2 mps 652 mmHg 61%
    02:00 +17°C° 0 mm 2 mps 652 mmHg 61%
    03:00 +17°C° 0 mm 2 mps 652 mmHg 61%
    04:00 +18°C° 0 mm 1 mps 651 mmHg 60%
    05:00 +18°C° 0.3 mm 2 mps 652 mmHg 56%
    06:00 +19°C° 0.3 mm 2 mps 652 mmHg 53%
    07:00 +20°C° 0.3 mm 2 mps 653 mmHg 49%
    08:00 +23°C° 0 mm 2 mps 653 mmHg 41%
    09:00 +25°C° 0 mm 2 mps 653 mmHg 34%
    10:00 +27°C° 0 mm 2 mps 654 mmHg 27%
    11:00 +28°C° 0 mm 2 mps 653 mmHg 26%
    12:00 +28°C° 0 mm 3 mps 653 mmHg 26%
    13:00 +29°C° 0 mm 3 mps 653 mmHg 26%
    14:00 +28°C° 0.1 mm 3 mps 653 mmHg 28%
    15:00 +28°C° 0.1 mm 4 mps 652 mmHg 31%
    16:00 +27°C° 0.1 mm 4 mps 652 mmHg 33%
    17:00 +25°C° 0.7 mm 3 mps 651 mmHg 42%
    18:00 +22°C° 0.7 mm 3 mps 651 mmHg 51%
    19:00 +20°C° 0.7 mm 2 mps 651 mmHg 59%
    20:00 +18°C° 0.5 mm 3 mps 651 mmHg 68%
    21:00 +16°C° 0.5 mm 3 mps 651 mmHg 77%
    22:00 +13°C° 0.5 mm 3 mps 652 mmHg 86%
    23:00 +14°C° 0.8 mm 3 mps 652 mmHg 86%

    Day after tomorrow, 24 April, Wednesday

    Time Temperature Precipitation Wind Pressure Humidity
    00:00 +14°C° 0.8 mm 3 mps 652 mmHg 85%
    01:00 +15°C° 0.8 mm 2 mps 652 mmHg 84%
    02:00 +13°C° 1.2 mm 3 mps 652 mmHg 85%
    03:00 +12°C° 1.2 mm 3 mps 652 mmHg 86%
    04:00 +12°C° 1.2 mm 4 mps 652 mmHg 87%
    05:00 +11°C° 0.4 mm 4 mps 652 mmHg 87%
    06:00 +9°C° 0.4 mm 5 mps 653 mmHg 86%
    07:00 +8°C° 0.4 mm 6 mps 653 mmHg 85%
    08:00 +8°C° 0.1 mm 6 mps 653 mmHg 83%
    09:00 +8°C° 0.1 mm 6 mps 653 mmHg 81%
    10:00 +8°C° 0.1 mm 5 mps 654 mmHg 79%
    11:00 +7°C° 0.2 mm 6 mps 654 mmHg 81%
    12:00 +5°C° 0.2 mm 6 mps 654 mmHg 83%
    13:00 +5°C° 0.2 mm 7 mps 654 mmHg 84%
    14:00 +4°C° 0.3 mm 7 mps 654 mmHg 84%
    15:00 +4°C° 0.3 mm 6 mps 654 mmHg 84%
    16:00 +3°C° 0.3 mm 6 mps 655 mmHg 84%
    17:00 +3°C° 0.3 mm 6 mps 655 mmHg 84%
    18:00 +3°C° 0.3 mm 5 mps 656 mmHg 84%
    19:00 +3°C° 0.3 mm 5 mps 656 mmHg 84%
    20:00 +4°C° 0.4 mm 4 mps 656 mmHg 84%
    21:00 +4°C° 0.4 mm 4 mps 657 mmHg 83%
    22:00 +4°C° 0.4 mm 3 mps 657 mmHg 83%
    23:00 +4°C° 0.4 mm 3 mps 657 mmHg 82%

    25 April, Thursday

    Time Temperature Precipitation Wind Pressure Humidity
    00:00 +4°C° 0.4 mm 3 mps 657 mmHg 82%
    01:00 +3°C° 0.4 mm 3 mps 657 mmHg 81%
    02:00 +3°C° 0.3 mm 3 mps 657 mmHg 81%
    03:00 +3°C° 0.3 mm 3 mps 657 mmHg 81%
    04:00 +4°C° 0.3 mm 2 mps 657 mmHg 81%
    05:00 +4°C° 0.2 mm 2 mps 657 mmHg 79%
    06:00 +4°C° 0.2 mm 2 mps 657 mmHg 77%
    07:00 +5°C° 0.2 mm 2 mps 657 mmHg 75%
    08:00 +5°C° 0.3 mm 2 mps 658 mmHg 72%
    09:00 +5°C° 0.3 mm 3 mps 658 mmHg 69%
    10:00 +7°C° 0.3 mm 3 mps 658 mmHg 66%
    11:00 +7°C° 0.3 mm 3 mps 658 mmHg 63%
    12:00 +8°C° 0.3 mm 2 mps 658 mmHg 59%
    13:00 +9°C° 0.3 mm 2 mps 658 mmHg 56%
    14:00 +9°C° 0 mm 2 mps 658 mmHg 55%
    15:00 +9°C° 0 mm 2 mps 658 mmHg 53%
    16:00 +10°C° 0 mm 2 mps 658 mmHg 52%
    17:00 +10°C° 0 mm 1 mps 659 mmHg 53%
    18:00 +10°C° 0 mm 1 mps 659 mmHg 54%
    19:00 +9°C° 0 mm 1 mps 659 mmHg 55%
    20:00 +9°C° 0 mm 1 mps 659 mmHg 58%
    21:00 +9°C° 0 mm 1 mps 659 mmHg 60%
    22:00 +8°C° 0 mm 1 mps 659 mmHg 63%
    23:00 +8°C° 0 mm 1 mps 658 mmHg 65%

    26 April, Friday

    Time Temperature Precipitation Wind Pressure Humidity
    00:00 +7°C° 0 mm 0 mps 658 mmHg 66%
    01:00 +6°C° 0 mm 0 mps 658 mmHg 68%
    02:00 +6°C° 0 mm 0 mps 657 mmHg 69%
    03:00 +5°C° 0 mm 0 mps 657 mmHg 71%
    04:00 +5°C° 0 mm 0 mps 657 mmHg 73%
    05:00 +6°C° 0 mm 0 mps 658 mmHg 69%
    06:00 +7°C° 0 mm 0 mps 658 mmHg 65%
    07:00 +8°C° 0 mm 0 mps 659 mmHg 61%
    08:00 +9°C° 0 mm 1 mps 659 mmHg 57%
    09:00 +10°C° 0 mm 1 mps 659 mmHg 53%
    10:00 +11°C° 0 mm 1 mps 659 mmHg 49%
    11:00 +12°C° 0 mm 2 mps 659 mmHg 47%
    12:00 +13°C° 0 mm 2 mps 659 mmHg 46%
    13:00 +12°C° 0 mm 3 mps 659 mmHg 44%
    14:00 +12°C° 0 mm 3 mps 658 mmHg 45%
    15:00 +12°C° 0 mm 3 mps 658 mmHg 45%
    16:00 +12°C° 0 mm 3 mps 658 mmHg 45%
    17:00 +13°C° 0 mm 2 mps 658 mmHg 46%
    18:00 +12°C° 0 mm 1 mps 659 mmHg 46%
    19:00 +11°C° 0 mm 1 mps 659 mmHg 47%
    20:00 +11°C° 0.2 mm 1 mps 659 mmHg 48%
    21:00 +11°C° 0.2 mm 1 mps 659 mmHg 49%
    22:00 +11°C° 0.2 mm 1 mps 659 mmHg 51%
    23:00 +10°C° 0.3 mm 1 mps 659 mmHg 54%

    27 April, Saturday

    Time Temperature Precipitation Wind Pressure Humidity
    00:00 +10°C° 0.3 mm 1 mps 658 mmHg 57%
    01:00 +9°C° 0.3 mm 1 mps 658 mmHg 60%
    02:00 +9°C° 0.3 mm 1 mps 658 mmHg 62%
    03:00 +9°C° 0.3 mm 1 mps 658 mmHg 64%
    04:00 +8°C° 0.3 mm 1 mps 658 mmHg 66%
    05:00 +9°C° 0.2 mm 1 mps 658 mmHg 65%
    06:00 +9°C° 0.2 mm 1 mps 658 mmHg 65%
    07:00 +9°C° 0.2 mm 1 mps 659 mmHg 64%
    08:00 +10°C° 0.1 mm 1 mps 659 mmHg 60%
    09:00 +11°C° 0.1 mm 1 mps 659 mmHg 56%
    10:00 +12°C° 0.1 mm 2 mps 659 mmHg 53%
    11:00 +13°C° 0.1 mm 2 mps 659 mmHg 52%
    12:00 +13°C° 0.1 mm 2 mps 658 mmHg 51%
    13:00 +13°C° 0.1 mm 3 mps 658 mmHg 49%
    14:00 +14°C° 0.1 mm 2 mps 658 mmHg 50%
    15:00 +14°C° 0.1 mm 2 mps 658 mmHg 51%
    16:00 +14°C° 0.1 mm 2 mps 657 mmHg 52%
    17:00 +14°C° 0.2 mm 2 mps 657 mmHg 54%
    18:00 +13°C° 0.2 mm 1 mps 657 mmHg 57%
    19:00 +12°C° 0.2 mm 1 mps 657 mmHg 60%
    20:00 +12°C° 0.3 mm 1 mps 657 mmHg 61%
    21:00 +12°C° 0.3 mm 1 mps 657 mmHg 61%
    22:00 +12°C° 0.3 mm 1 mps 657 mmHg 62%
    23:00 +11°C° 0.6 mm 1 mps 657 mmHg 64%
    Show more